This is the latest recevied weather packets stored in our database for station/object K0QED. If no packets are shown the sender has not sent any weather packets the latest 10 day(s).
| Time | Temp. | Humidity | Pressure | Rain* | Wind** | Luminosity | Snow |
|---|---|---|---|---|---|---|---|
| 1777795969 | 5.56° C | 43% | 1022 hPa | 0 mm | - | 0 W/m² | - |
| 1777795664 | 5.56° C | 43% | 1021.9 hPa | 0 mm | - | 0 W/m² | - |
| 1777795362 | 5.56° C | 46% | 1021.9 hPa | 0 mm | - | 0 W/m² | - |
| 1777795058 | 5.56° C | 41% | 1021.7 hPa | 0 mm | - | 0 W/m² | - |
| 1777794754 | 6.11° C | 39% | 1022.2 hPa | 0 mm | - | 0 W/m² | - |
| 1777794451 | 6.11° C | 40% | 1022.1 hPa | 0 mm | - | 0 W/m² | - |
| 1777794146 | 6.11° C | 39% | 1022.2 hPa | 0 mm | - | 0 W/m² | - |
| 1777793842 | 6.11° C | 41% | 1022.2 hPa | 0 mm | - | 0 W/m² | - |
| 1777793541 | 6.11° C | 42% | 1022.4 hPa | 0 mm | - | 0 W/m² | - |
| 1777793238 | 5.56° C | 43% | 1022.2 hPa | 0 mm | - | 0 W/m² | - |
| 1777792935 | 5.56° C | 42% | 1022.4 hPa | 0 mm | - | 0 W/m² | - |
| 1777792632 | 5.56° C | 42% | 1022.4 hPa | 0 mm | - | 0 W/m² | - |
| 1777792329 | 5.56° C | 44% | 1022.5 hPa | 0 mm | - | 0 W/m² | - |
| 1777792025 | 5° C | 45% | 1022.6 hPa | 0 mm | - | 0 W/m² | - |
| 1777791724 | 5.56° C | 45% | 1022.5 hPa | 0 mm | - | 0 W/m² | - |
| 1777791421 | 5.56° C | 42% | 1022.5 hPa | 0 mm | - | 0 W/m² | - |
| 1777791118 | 5.56° C | 42% | 1022.4 hPa | 0 mm | - | 0 W/m² | - |
| 1777790815 | 5.56° C | 42% | 1022.6 hPa | 0 mm | - | 0 W/m² | - |
| 1777790512 | 5.56° C | 42% | 1022.5 hPa | 0 mm | - | 0 W/m² | - |
| 1777790209 | 5.56° C | 42% | 1022.7 hPa | 0 mm | - | 0 W/m² | - |
| 1777789908 | 5.56° C | 42% | 1022.6 hPa | 0 mm | - | 0 W/m² | - |
| 1777789606 | 5.56° C | 42% | 1022.7 hPa | 0 mm | - | 0 W/m² | - |
| 1777789304 | 5.56° C | 42% | 1023.1 hPa | 0 mm | - | 0 W/m² | - |
| 1777789001 | 5.56° C | 43% | 1022.9 hPa | 0 mm | - | 0 W/m² | - |
| 1777788697 | 5.56° C | 44% | 1022.6 hPa | 0 mm | - | 0 W/m² | - |
* Rain latest hour (hover to see other rain measurements)
** Current wind speed in m/s (hover to see current wind gust speed)